Medicine Lodge, KS

7:09 AM CST on December 06, 2019 (GMT -0600)
Medicine Lodge

Weather History for KP28 - October, 2019

Change the Weather History Date:

Thursday, October 3, 2019

  Actual Average Record
Temperature  
Mean Temperature 55 °F 64 °F  
Max Temperature 59 °F 77 °F 97 °F (1954)
Min Temperature 50 °F 51 °F 33 °F (1980)
Degree Days  
Heating Degree Days 10 4  
Month to date heating degree days 10 12  
Since 1 July heating degree days 10 46  
Cooling Degree Days 0 3  
Month to date cooling degree days 20 9  
Year to date cooling degree days 1834 1740  
Growing Degree Days 4 (Base 50)    
Moisture  
Dew Point 50 °F    
Average Humidity 86    
Maximum Humidity 100    
Minimum Humidity 72    
Precipitation  
Precipitation 1.50 in 0.08 in 3.38 in (1926)
Month to date precipitation 1.52 0.26  
Year to date precipitation 30.10 22.71  
Snow  
Snow 0.00 in 0.00 in - ()
Month to date snowfall 0.0 0.0  
Since 1 July snowfall 0.0 0.0  
Since 1 September snowfall 0.0 0.0  
Snow Depth 0.00 in    
Sea Level Pressure  
Sea Level Pressure 30.22 in    
Wind  
Wind Speed 9 mph (NNE)    
Max Wind Speed 24 mph    
Max Gust Speed 33 mph    
T = Trace of Precipitation, MM = Missing Value Source: NWS Daily Summary

Daily Weather History Graph

Daily Weather History Graph

Search for Another Location

Airport or City:

Astronomy

Oct. 03, 2019 Rise Set
Actual Time 7:31 AM CDT 7:14 PM CDT
Civil Twilight 7:05 AM CDT 7:40 PM CDT
Nautical Twilight 6:35 AM CDT 8:10 PM CDT
Astronomical Twilight 6:04 AM CDT 8:41 PM CDT
Moon 12:57 PM CDT (10/3) 11:01 PM CDT (10/3)
Length of Visible Light 12h 35m
Length of Day
11h 43m
Waxing Crescent, 30% of the Moon is Illuminated
Oct 3
Waxing Crescent
Oct 5
First Quarter
Oct 13
Full
Oct 21
Last Quarter
Oct 27
New

Hourly Weather History & Observations

Time (CDT) Temp. Dew Point Humidity Pressure Visibility Wind Dir Wind Speed Gust Speed Precip Events Conditions
12:56 AM 57.0 °F 52.0 °F 83% 30.06 in - NNE 18.4 mph 25.3 mph N/A   Unknown
1:56 AM 55.9 °F 53.1 °F 90% 30.08 in - NNE 17.3 mph 28.8 mph N/A   Unknown
2:56 AM 53.1 °F 53.1 °F 100% 30.10 in - NNE 16.1 mph 26.5 mph 0.27 in   Unknown
3:56 AM 52.0 °F 52.0 °F 100% 30.14 in - North 13.8 mph - 0.35 in   Unknown
4:56 AM 51.1 °F 51.1 °F 100% 30.16 in - NNW 12.7 mph 19.6 mph 0.27 in   Unknown
5:56 AM 51.1 °F 51.1 °F 100% 30.19 in - NNE 5.8 mph - 0.38 in   Unknown
8:56 AM 50.0 °F 48.9 °F 96% 30.25 in - NNE 11.5 mph - 0.02 in   Unknown
9:56 AM 51.1 °F 48.0 °F 89% 30.26 in - NNE 13.8 mph - 0.07 in   Unknown
10:56 AM 51.1 °F 48.0 °F 89% 30.28 in - NNE 10.4 mph - N/A   Unknown
12:56 PM 55.0 °F 46.9 °F 74% 30.28 in - NNE 12.7 mph - N/A   Unknown
1:56 PM 55.0 °F 46.0 °F 72% 30.27 in - NNE 10.4 mph - N/A   Unknown
2:56 PM 55.9 °F 48.0 °F 75% 30.26 in - North 11.5 mph - N/A   Unknown
3:56 PM 57.9 °F 48.0 °F 70% 30.24 in - NNE 11.5 mph - N/A   Unknown
4:56 PM 57.9 °F 48.0 °F 70% 30.24 in - NE 11.5 mph - N/A   Unknown
5:56 PM 57.9 °F 48.0 °F 70% 30.24 in - NNE 9.2 mph - N/A   Unknown
6:56 PM 57.0 °F 48.9 °F 74% 30.24 in - NNE 6.9 mph - N/A   Unknown
7:56 PM 57.0 °F 48.9 °F 74% 30.24 in - NE 5.8 mph - N/A   Unknown
8:56 PM 57.0 °F 50.0 °F 77% 30.25 in - ENE 4.6 mph - N/A   Unknown
9:56 PM 57.0 °F 51.1 °F 81% 30.27 in - Calm Calm - N/A   Unknown
10:56 PM 57.0 °F 51.1 °F 81% 30.27 in - NE 4.6 mph - N/A   Unknown
11:56 PM 57.0 °F 51.1 °F 81% 30.27 in - East 3.5 mph - N/A   Unknown